Location: Broek
(53.2737°N, 5.9967°E)
Time: 22:50:19
(UTC+00:00)

Lacrosse 5 rocket - Pass Details

Date: 10 October 2024
Orbit: 431 x 555 km, 57.0° (Epoch: 10 November)

Event Time Altitude Azimuth Distance (km) Brightness Sun altitude
Rises 19:46:16 0° 238° (WSW) 2,541 5.1 -26.5°
Reaches altitude 10° 19:48:28 10° 236° (WSW) 1,640 4.1 -26.8°
Enters shadow 19:49:10 15° 235° (SW) 1,359 3.6 -26.9°
